Temp
64 64 63 63 64 64 64 64 64 64 64 64 64 64 64 64 65 89 101 94 95 82 83 108 106 108 107 106 107 108 92 85 86 85 84 91 89 93 96 91 92 93 93 95 97
63 63 63 63 63 64 64 64 64 64 64 64 64 64 64 64 89 104 87 85 85 83 102 106 106 107 106 104 107 102 90 87 96 94 89 91 91 89 89 88 88 92 96 95 96
63 63 63 63 63 63 63 63 63 63 63 63 64 64 64 70 95 104 83 84 85 87 105 110 110 109 103 107 104 101 90 96 94 96 95 91 91 94 92 88 90 87 89 92 93
63 62 62 62 63 63 63 63 63 63 63 63 64 64 65 88 88 104 86 85 83 102 107 108 109 105 101 99 103 94 97 98 95 96 94 90 95 91 91 90 97 94 93 93 92
62 62 61 61 62 62 62 62 62 62 62 63 64 65 84 94 100 105 87 87 102 104 106 107 105 104 99 102 101 98 96 98 97 97 96 96 91 89 89 94 98 95 93 93 94
61 61 61 61 61 62 62 61 61 61 62 63 65 64 89 92 109 111 108 108 111 108 109 110 106 107 102 101 97 100 97 98 98 95 95 91 90 93 90 96 93 93 93 95 95
61 61 61 61 61 61 61 60 60 61 62 64 66 82 93 98 109 111 110 111 113 112 108 111 111 106 105 100 103 101 95 97 96 96 93 96 88 86 93 95 91 92 93 95 96
61 61 60 61 61 60 60 59 60 63 64 65 67 89 94 107 111 108 112 110 113 113 112 113 113 107 105 105 101 97 96 84 95 95 94 94 79 89 94 92 91 92 93 93 95
60 60 60 60 60 59 59 59 62 65 68 69 84 93 95 94 103 111 111 107 111 112 113 110 109 104 104 97 94 95 62 87 90 97 94 91 85 90 95 93 91 93 93 93 94
60 59 59 59 59 58 58 58 68 66 73 90 93 89 98 99 105 106 111 109 107 107 105 103 103 98 99 97 79 83 88 90 87 95 94 91 88 91 94 94 92 94 94 93 94
59 59 59 59 58 57 67 90 86 84 91 93 94 95 96 103 105 102 109 105 106 104 94 101 94 90 95 99 97 94 91 87 92 96 93 92 92 93 94 94 93 95 95 95 96
59 59 59 58 57 57 69 92 86 87 81 97 97 97 100 100 94 102 109 98 97 92 98 96 89 98 101 98 94 94 90 89 93 95 94 93 90 97 95 93 95 95 96 96 97
59 58 58 56 56 70 91 88 95 94 83 93 96 95 97 99 94 99 103 100 96 92 95 91 96 100 99 94 91 93 91 90 87 94 98 92 75 79 92 95 97 98 99 100 97
59 58 57 55 66 91 90 92 97 93 78 85 89 94 95 97 92 106 107 102 97 92 95 95 101 97 96 92 95 88 97 92 90 89 79 82 78 78 69 91 93 97 98 100 99
58 57 55 53 76 88 90 96 96 91 66 87 90 100 98 92 97 97 107 102 93 93 95 91 94 94 91 93 97 91 96 92 91 89 89 89 82 86 90 88 92 95 98 100 98
57 56 55 74 80 90 95 95 92 74 66 82 90 87 88 91 94 100 97 103 102 95 96 95 104 100 96 99 99 99 94 92 92 89 79 81 77 78 76 90 94 97 99 100 100
55 54 56 76 88 93 94 89 74 69 86 81 84 88 88 88 90 90 88 88 87 81 84 90 93 97 100 93 98 96 90 77 75 76 72 84 74 83 93 95 95 96 98 100 102
54 52 64 80 91 91 89 80 65 79 81 87 85 86 83 90 89 89 88 85 92 92 88 82 79 92 98 93 91 91 90 79 67 72 65 67 64 86 96 98 98 98 100 101 101
52 83 86 90 90 89 82 71 75 81 84 82 86 81 83 86 87 88 87 87 92 94 84 85 84 98 98 98 97 91 85 95 86 88 78 74 78 90 96 95 94 96 97 97 98
72 86 89 91 91 86 77 66 81 85 84 85 78 82 81 83 82 86 85 92 91 97 99 92 82 95 97 99 98 94 99 85 86 71 68 75 81 86 87 90 91 93 94 95 96
75 82 87 91 90 81 72 78 82 88 86 82 80 79 83 81 84 85 85 91 95 94 97 95 90 88 93 89 87 90 88 90 91 87 75 74 79 78 62 82 91 92 93 92 93
83 80 88 91 76 81 77 82 61 84 86 84 83 83 81 82 82 84 85 90 96 96 87 94 91 82 86 96 97 96 91 91 81 78 86 84 69 94 79 95 95 93 92 93 92
80 84 91 88 73 78 82 81 82 82 82 82 81 85 86 81 76 84 86 94 93 93 90 93 85 78 82 91 94 89 92 95 94 93 81 78 80 98 98 97 95 91 91 89 90
78 76 82 83 85 79 78 77 78 85 83 84 82 86 83 81 85 80 84 90 92 93 75 88 89 83 78 82 90 84 88 91 92 84 85 86 84 88 95 94 91 91 90 89 88
84 79 79 79 80 80 80 79 75 75 83 84 80 81 81 77 81 81 86 88 91 79 89 91 82 86 88 90 91 90 88 88 86 88 83 88 88 93 95 95 91 91 87 87 86
73 72 78 78 80 76 68 76 75 77 78 78 77 82 83 78 81 78 85 86 86 90 88 92 80 85 82 89 89 85 89 90 90 90 89 90 89 101 99 97 91 89 86 85 85
77 80 74 70 79 77 72 74 75 79 81 84 81 79 77 82 87 88 90 90 91 87 86 87 84 80 75 85 85 79 86 88 90 93 91 85 92 99 97 94 90 88 85 86 86
MSLP
1016.24 1015.77 1015.31 1014.94 1014.37 1013.90 1013.35 1012.75 1012.23 1011.85 1011.41 1010.91 1010.18 1009.80 1009.43 1008.90 1007.44 1006.64 1004.47 1004.23 1004.13 1004.00 1004.24 1002.18 1001.84 1001.01 1000.55 998.88 998.59 997.86 997.35 998.34 999.38 1000.19 1001.61 1001.99 1002.29 1003.29 1003.66 1003.81 1004.13 1004.40 1005.20 1006.34 1007.81
1016.23 1015.80 1015.34 1014.87 1014.38 1013.81 1013.34 1012.81 1012.25 1011.77 1011.22 1010.65 1010.07 1009.69 1009.33 1008.87 1006.91 1004.35 1004.32 1003.88 1003.92 1004.04 1003.41 1001.39 1000.03 999.65 998.51 998.14 997.47 996.86 998.15 999.36 999.87 1000.45 1001.31 1001.91 1002.47 1003.23 1003.40 1003.90 1004.38 1004.46 1005.54 1006.98 1007.87
1016.28 1015.83 1015.37 1014.86 1014.32 1013.79 1013.23 1012.72 1012.18 1011.67 1011.05 1010.46 1009.89 1009.45 1009.17 1008.64 1005.65 1002.69 1003.78 1003.77 1003.72 1003.85 1002.75 1001.36 1000.32 998.66 997.41 997.15 997.20 997.78 998.58 999.57 1000.64 1001.05 1001.47 1001.91 1002.37 1002.63 1002.25 1002.79 1003.94 1005.03 1006.15 1007.06 1007.72
1016.44 1015.90 1015.39 1014.87 1014.27 1013.72 1013.18 1012.58 1012.04 1011.45 1010.97 1010.40 1009.67 1009.17 1008.77 1007.26 1003.66 1002.86 1003.54 1003.56 1003.47 1003.26 1002.37 1000.94 998.95 997.58 996.78 996.88 997.71 998.18 999.24 999.83 1000.67 1001.12 1001.48 1001.85 1002.22 1002.74 1002.95 1003.49 1003.91 1005.22 1006.39 1006.88 1007.37
1016.53 1015.98 1015.32 1014.68 1014.18 1013.61 1013.01 1012.34 1011.88 1011.26 1010.69 1010.19 1009.50 1009.13 1007.53 1005.18 1002.26 1002.76 1003.27 1003.26 1003.05 1002.84 1001.61 1000.14 998.50 997.64 996.80 997.10 997.53 998.11 999.21 1000.04 1000.74 1001.07 1001.45 1001.86 1002.44 1003.10 1003.66 1004.12 1004.53 1005.58 1006.45 1006.82 1006.94
1016.51 1015.91 1015.28 1014.63 1014.00 1013.34 1012.76 1012.07 1011.55 1010.99 1010.37 1009.97 1009.36 1009.12 1007.20 1003.50 1002.03 1002.07 1002.41 1002.31 1001.70 1001.69 1000.62 999.87 998.75 998.57 997.56 997.35 997.74 998.63 999.10 999.66 1000.22 1000.85 1001.30 1001.50 1002.20 1002.51 1004.01 1004.30 1004.92 1005.75 1006.17 1006.52 1006.57
1016.52 1015.91 1015.21 1014.51 1013.82 1013.06 1012.39 1011.77 1011.11 1010.55 1009.96 1009.62 1009.28 1008.56 1005.39 1002.28 1002.05 1001.85 1001.95 1001.31 1000.94 1000.84 1000.00 999.58 999.42 998.71 997.86 997.61 998.45 998.45 998.47 999.07 999.65 1000.29 1000.28 1000.66 1001.12 1002.51 1003.80 1004.32 1004.91 1005.45 1005.78 1006.01 1006.20
1016.50 1015.87 1015.16 1014.43 1013.63 1012.76 1011.97 1011.30 1010.62 1010.02 1009.53 1009.17 1009.06 1007.64 1003.31 1002.14 1002.11 1001.99 1001.48 1001.09 1001.00 1000.73 1000.38 999.85 999.63 999.03 998.06 998.10 998.19 997.77 997.75 998.00 999.00 999.88 1000.11 1000.25 1000.94 1002.57 1003.56 1004.00 1004.39 1004.94 1005.37 1005.85 1006.10
1016.44 1015.71 1014.98 1014.22 1013.44 1012.59 1011.57 1010.86 1010.10 1009.68 1009.22 1008.86 1008.14 1005.90 1002.13 1002.60 1001.82 1001.05 1001.12 1000.42 1000.22 1000.26 1000.21 1000.41 999.95 998.62 997.80 997.40 996.62 996.89 999.55 997.31 998.01 999.28 999.60 1000.20 1000.37 1002.00 1002.86 1003.21 1003.67 1004.22 1004.76 1005.38 1005.89
1016.42 1015.67 1014.83 1013.97 1013.06 1012.20 1011.11 1010.13 1009.47 1009.52 1008.95 1007.70 1006.53 1004.97 1002.15 1000.95 1000.82 1001.17 1000.93 1000.82 999.92 999.80 999.90 999.90 999.20 998.12 997.28 996.19 996.24 996.21 996.02 996.97 997.54 998.31 998.95 999.41 1000.05 1001.22 1002.15 1002.38 1002.78 1003.34 1004.06 1004.79 1005.23
1016.27 1015.48 1014.67 1013.77 1012.77 1011.83 1010.72 1008.43 1008.76 1007.96 1006.33 1003.99 1002.95 1001.86 1001.39 1001.22 1001.60 1001.09 1000.70 1000.67 999.96 999.34 998.96 998.74 998.04 996.93 995.99 995.82 996.21 996.32 996.47 996.95 997.36 998.14 998.32 998.18 998.69 999.65 1001.24 1001.64 1001.89 1002.38 1003.13 1003.81 1004.11
1016.23 1015.32 1014.45 1013.53 1012.44 1011.27 1010.79 1007.33 1007.82 1007.82 1005.21 1002.85 1002.39 1002.01 1001.59 1001.63 1000.55 1000.07 1000.29 1000.09 999.58 998.64 998.56 997.87 997.24 996.72 996.27 996.36 997.09 996.89 996.67 996.63 997.09 997.71 997.99 997.43 998.21 998.32 999.74 1000.65 1000.92 1001.50 1002.05 1002.78 1003.39
1016.19 1015.36 1014.38 1013.28 1012.15 1010.73 1008.72 1007.95 1007.78 1007.28 1005.00 1001.35 1001.33 1001.09 1001.00 1001.43 1000.11 999.02 999.88 999.39 998.65 998.24 997.61 996.99 996.39 996.88 996.17 996.66 997.16 996.77 996.34 996.18 997.00 997.30 997.03 997.56 999.16 999.93 999.68 1000.14 1000.17 1000.68 1001.25 1001.88 1002.75
1016.04 1015.34 1014.54 1013.22 1012.15 1009.34 1007.73 1007.91 1007.33 1007.21 1003.96 1000.52 1000.60 1000.29 1000.91 1000.72 999.65 998.75 999.00 998.95 998.18 997.64 997.27 996.56 996.30 995.97 996.09 996.65 996.73 996.15 995.96 996.68 997.26 997.05 997.02 998.01 998.04 1000.45 1001.35 999.64 999.57 999.78 1000.43 1001.13 1002.21
1015.87 1015.29 1014.61 1014.62 1012.03 1008.42 1008.02 1007.66 1007.43 1006.67 1002.11 999.95 999.82 1000.66 999.91 999.79 998.16 998.63 998.76 998.61 997.74 997.34 997.13 996.19 996.12 995.95 996.23 996.34 996.58 996.28 996.58 997.25 997.38 997.28 996.69 995.95 996.92 997.62 997.08 997.69 998.27 999.04 999.47 1000.32 1001.69
1015.60 1015.11 1014.63 1012.10 1011.30 1008.84 1008.23 1007.80 1007.07 1004.87 1000.14 999.16 999.29 999.55 999.53 999.30 998.53 997.81 998.71 998.68 998.14 997.40 996.94 996.07 995.87 995.82 996.06 996.42 996.40 996.52 996.84 997.12 997.49 997.27 996.64 996.81 997.84 997.08 997.38 995.96 996.90 997.84 998.83 999.78 1000.90
1015.03 1014.62 1014.61 1012.25 1008.67 1008.77 1008.35 1007.11 1004.80 1001.61 999.44 998.57 998.30 998.63 998.25 997.86 998.02 998.26 998.28 998.13 997.42 997.06 996.20 996.43 995.89 996.41 996.36 996.21 996.18 996.38 996.53 996.51 996.42 996.25 997.08 998.24 998.89 995.73 996.24 996.74 997.10 997.51 998.30 999.36 1000.39
1014.17 1013.75 1012.00 1010.89 1009.42 1009.11 1007.92 1006.00 1002.75 999.84 998.85 999.14 998.84 998.31 997.74 997.04 997.21 997.38 997.39 996.94 996.85 996.17 995.26 995.24 995.17 995.71 995.93 996.12 995.46 995.59 996.07 995.80 995.36 995.18 998.00 999.43 999.50 995.71 996.20 996.78 997.47 997.89 998.17 999.24 1000.22
1013.18 1010.66 1009.69 1009.02 1009.37 1009.15 1007.29 1004.12 1001.20 999.81 999.54 999.42 998.55 997.91 997.15 996.95 996.83 996.71 996.51 996.09 995.77 995.68 994.98 993.99 994.07 994.36 995.16 995.83 995.69 994.99 995.29 995.64 995.15 994.44 995.48 997.46 997.62 996.49 996.41 996.78 997.78 998.04 998.74 999.48 1000.58
1012.68 1009.23 1008.04 1008.84 1008.95 1008.38 1006.29 1003.15 1000.95 1000.95 1001.12 1000.10 998.62 997.93 996.41 996.61 997.03 996.13 995.86 995.46 995.10 995.11 995.26 994.24 993.59 993.78 994.55 995.54 995.41 995.15 994.67 994.73 994.79 994.39 994.46 996.19 995.25 995.48 996.21 996.60 997.92 998.28 998.99 1000.07 1001.24
1012.04 1008.03 1008.40 1008.51 1008.52 1007.06 1004.47 1002.46 1001.49 1001.30 1001.65 1000.61 999.28 998.70 997.58 996.72 996.56 995.61 995.46 995.26 995.09 994.99 995.58 995.04 994.33 994.12 994.33 994.75 994.94 994.99 994.83 994.64 994.12 993.86 993.85 993.96 994.82 997.22 1000.06 997.61 997.80 998.50 999.63 1000.77 1001.83
1010.17 1006.94 1008.18 1008.27 1007.01 1005.06 1003.39 1002.36 1002.41 1001.78 1001.86 1001.47 1000.92 999.99 998.98 998.09 997.30 996.09 995.07 995.06 995.64 995.66 995.60 995.49 994.45 994.12 993.82 994.29 994.84 994.15 994.06 994.43 993.74 993.74 993.14 993.20 994.69 995.83 996.47 995.90 997.33 998.30 999.95 1001.24 1002.34
1009.41 1007.27 1007.74 1007.54 1004.93 1003.34 1003.08 1002.74 1002.73 1002.12 1001.75 1001.26 1000.86 1000.21 999.58 999.05 998.22 996.83 995.86 995.70 996.48 996.24 995.48 995.66 995.17 994.25 993.72 993.75 994.18 993.83 993.77 993.61 993.62 993.17 992.95 993.07 993.45 994.46 995.07 995.89 997.65 998.72 1000.24 1001.87 1002.81
1010.14 1006.47 1006.48 1006.64 1005.22 1004.25 1002.72 1002.63 1002.27 1002.48 1002.16 1001.56 1001.20 1000.49 1000.01 999.32 998.73 997.62 996.81 996.44 997.06 996.78 996.72 996.28 995.09 994.31 993.20 993.04 992.97 993.67 993.96 993.60 993.09 992.36 992.12 992.29 992.96 993.84 994.19 995.46 997.65 999.10 1000.59 1002.12 1003.22
1009.77 1007.41 1006.97 1004.87 1004.36 1003.99 1003.48 1002.93 1002.46 1002.08 1002.17 1001.79 1001.44 1000.91 1000.03 999.22 998.30 997.59 997.35 996.59 996.85 997.18 997.10 996.66 995.19 994.76 993.97 993.30 992.86 992.80 993.00 993.68 993.32 993.00 992.33 992.01 991.97 992.30 993.18 994.80 997.14 998.90 1001.00 1002.21 1003.37
1011.29 1010.04 1008.46 1006.56 1005.38 1004.99 1004.22 1003.50 1002.88 1002.33 1002.19 1001.46 1001.35 1000.42 1000.14 999.82 998.55 997.65 997.07 996.74 996.03 996.57 996.77 996.44 995.67 995.05 994.42 993.78 993.41 993.00 992.96 992.56 992.79 992.87 992.79 992.56 992.14 992.20 993.17 994.92 997.36 998.87 1000.80 1002.07 1003.26
1012.94 1011.55 1010.43 1007.15 1005.35 1004.52 1004.40 1004.03 1003.32 1003.06 1002.47 1002.02 1001.69 1001.10 1001.05 1000.59 1000.02 999.31 998.62 997.98 997.02 996.60 996.02 995.61 995.48 995.21 994.40 994.19 993.69 992.90 992.47 992.49 992.39 992.09 992.34 992.21 992.40 992.50 993.02 994.58 996.79 998.72 1000.70 1001.63 1002.85
Wind_Speed
16 17 17 17 18 17 18 18 19 18 17 17 17 16 16 17 23 9 9 5 1 13 8 8 10 5 9 5 7 10 13 13 15 15 12 5 12 11 11 10 8 1 18 21 20
17 18 18 18 18 19 18 18 19 19 19 18 17 16 15 15 12 14 4 2 3 10 11 9 10 3 11 4 4 8 11 15 17 15 11 9 14 9 8 9 8 12 23 20 18
18 18 18 19 19 19 19 19 19 19 19 19 18 17 14 16 11 5 2 1 6 11 16 13 14 14 5 5 7 15 11 14 14 14 11 9 10 8 9 11 11 15 21 20 18
18 19 19 20 20 20 20 19 19 20 18 18 19 17 15 9 7 9 3 4 9 13 15 15 15 13 2 12 1 15 9 11 9 7 10 9 10 12 12 8 12 16 19 18 17
18 19 19 20 21 21 20 20 19 20 18 17 18 15 11 10 4 9 7 6 12 13 14 14 15 9 4 8 6 13 7 9 7 8 9 10 13 12 11 9 13 18 18 16 15
18 19 19 20 21 21 20 21 19 19 18 16 16 16 9 15 6 6 1 7 10 13 13 13 8 10 4 5 8 7 3 8 8 6 6 10 10 9 10 13 16 17 16 15 12
19 19 20 22 22 22 22 21 21 18 16 14 12 8 10 4 2 5 6 8 9 12 14 7 8 14 3 10 2 7 11 9 6 5 2 5 11 13 13 14 16 15 13 13 13
19 20 21 22 23 24 24 22 20 14 11 11 8 10 9 4 6 8 11 10 10 9 11 7 8 14 11 1 8 14 10 9 10 6 3 10 11 14 14 14 15 15 13 12 12
20 21 22 23 23 24 24 22 18 9 7 7 9 9 9 5 11 11 7 12 12 12 9 5 11 16 7 15 16 12 10 8 12 7 3 6 11 15 15 15 14 14 14 13 13
20 21 22 24 25 25 26 21 4 6 9 8 8 9 7 12 6 6 8 10 11 13 12 13 13 16 14 15 1 22 5 11 1 9 7 10 5 15 16 15 15 15 14 13 13
20 22 23 25 26 25 17 6 9 9 13 14 1 7 2 1 6 12 14 13 14 14 18 18 16 16 20 14 11 6 8 2 5 3 8 7 8 19 17 16 15 15 16 15 15
20 23 24 26 26 26 11 6 7 7 11 13 13 13 7 4 8 12 13 15 18 20 21 21 18 19 16 5 6 11 8 10 5 4 8 9 7 11 20 19 16 15 15 16 15
20 22 25 27 28 13 7 7 7 9 9 9 11 13 13 12 13 17 17 21 18 22 23 23 17 19 16 8 12 13 13 4 6 10 18 13 8 12 13 17 17 15 14 15 16
20 21 23 29 10 8 3 3 8 3 8 15 12 9 9 11 14 15 20 21 17 21 24 23 20 18 18 15 15 18 11 3 11 14 3 24 3 11 14 17 17 17 16 15 16
20 20 20 13 13 6 8 8 9 7 9 10 12 7 7 15 7 20 13 22 21 18 18 23 19 22 17 17 18 15 3 8 12 14 19 14 9 10 13 19 18 15 16 16 17
21 19 21 6 10 9 8 9 7 9 6 9 8 12 13 17 11 15 16 18 16 20 18 19 15 23 16 19 18 13 15 9 14 15 15 8 10 14 8 6 11 16 15 16 19
22 20 11 9 3 8 9 8 9 12 5 8 9 9 16 14 20 14 19 21 19 19 20 19 18 12 15 20 22 21 15 12 15 15 3 13 16 11 13 9 6 5 15 16 17
25 21 6 9 6 8 9 10 11 1 1 4 3 6 12 12 18 17 20 21 24 22 16 18 19 19 18 20 17 18 18 15 18 17 9 11 12 6 12 12 8 7 9 14 15
30 8 8 5 5 6 9 11 11 10 6 5 8 11 13 8 7 17 21 21 23 25 22 18 20 18 19 17 21 19 19 21 26 26 9 15 11 26 15 14 8 12 11 13 14
7 6 4 1 5 7 10 15 11 3 8 9 15 3 10 16 13 16 17 18 22 23 19 20 13 17 17 15 17 20 15 12 14 22 17 21 7 1 14 15 12 13 15 14 15
7 7 6 6 7 8 10 14 10 7 4 9 5 6 12 2 10 15 17 8 14 13 17 22 12 16 15 17 20 16 18 15 20 15 16 13 5 10 18 14 15 15 15 16 16
7 4 6 6 9 9 12 14 4 9 7 11 5 12 11 5 11 14 12 11 15 17 18 19 13 15 16 15 18 24 21 22 15 17 14 15 3 20 24 21 14 17 16 16 16
7 3 5 6 8 9 10 8 7 13 9 6 9 8 2 9 6 13 7 5 2 12 13 16 13 15 18 19 21 12 19 21 23 18 17 14 3 8 7 14 14 17 17 16 16
7 5 6 7 9 10 9 8 12 10 13 8 10 12 10 12 11 8 7 6 5 14 11 9 17 15 16 17 14 20 21 17 19 16 14 16 11 16 10 15 15 16 18 17 16
2 6 6 3 6 7 6 9 7 7 11 7 10 14 16 13 14 13 13 6 11 5 8 16 17 17 18 20 14 20 20 22 24 22 20 16 16 12 16 17 18 19 18 18 19
7 6 8 10 8 7 5 10 11 8 4 12 11 14 10 11 16 11 7 5 7 10 14 16 16 14 20 14 19 13 16 18 23 23 21 21 20 17 15 16 16 19 20 20 19
6 5 6 5 10 8 3 9 8 9 7 12 11 6 4 12 12 16 14 16 16 8 10 12 13 15 14 17 17 21 22 18 20 21 17 19 18 13 10 18 18 20 19 20 20
Wind_Direction
357 353 351 347 344 341 339 334 332 331 327 322 322 319 319 317 303 215 241 24 257 174 222 246 225 217 223 234 246 252 64 54 56 68 96 145 93 73 104 132 101 17 138 136 145
354 351 347 344 343 339 337 332 328 327 325 322 319 315 317 319 282 248 78 37 233 200 237 247 336 246 224 143 298 101 64 55 46 65 83 70 85 128 136 126 130 96 108 133 151
350 347 345 341 340 337 333 329 325 323 323 319 315 312 315 310 263 165 67 281 246 206 252 292 288 261 175 252 44 48 74 79 61 51 77 99 111 182 163 144 146 134 140 152 156
348 345 340 338 337 334 329 326 322 320 318 314 311 312 311 258 225 81 100 252 226 224 250 276 263 253 244 112 286 93 52 76 77 79 76 87 81 60 36 48 127 140 149 158 165
347 342 336 335 333 330 326 323 320 316 312 309 306 315 304 222 245 129 180 148 182 214 245 265 287 294 87 94 159 102 95 98 103 87 91 87 80 90 92 101 123 135 157 161 177
342 338 335 333 331 328 325 321 318 311 303 299 299 310 247 252 81 153 149 186 203 216 239 255 333 335 324 38 47 99 88 121 136 117 113 127 135 123 116 126 132 150 163 169 173
340 337 334 331 329 326 324 320 315 306 294 285 288 290 262 290 319 210 230 226 202 221 255 244 306 287 309 146 30 172 159 158 140 152 159 175 140 112 140 146 149 163 172 170 181
338 335 332 330 327 324 321 317 313 303 285 270 267 267 267 71 316 245 230 222 216 235 256 313 277 284 273 16 185 218 259 158 117 147 184 254 114 138 156 160 162 169 172 177 185
336 334 330 327 326 322 317 312 301 284 266 251 243 234 250 129 215 217 233 230 198 212 220 287 255 260 191 231 204 218 189 89 146 154 167 266 135 161 173 173 169 174 171 181 183
335 331 328 327 324 320 316 295 284 251 222 228 267 259 228 216 163 234 219 250 217 212 213 223 234 243 232 239 261 301 112 125 19 124 195 191 221 166 187 188 181 178 167 178 179
334 330 328 327 322 319 323 223 210 193 214 264 35 280 123 154 222 213 209 210 237 218 217 210 233 236 242 228 6 309 336 50 96 116 274 235 232 161 188 199 191 187 172 178 183
332 330 328 326 319 314 285 323 37 352 297 264 245 257 281 288 235 211 192 208 210 218 218 232 226 244 250 81 253 254 246 240 212 207 261 263 9 188 176 204 200 195 180 178 182
330 329 328 324 317 289 326 32 340 319 259 216 214 228 213 211 233 193 195 209 212 221 218 231 210 236 259 191 243 244 252 301 325 300 256 317 79 269 279 193 205 199 196 184 181
329 328 330 324 298 340 242 349 319 327 268 162 194 196 186 226 230 244 191 215 233 227 227 235 239 237 212 234 234 258 232 198 266 279 255 214 236 164 268 199 200 197 190 192 185
326 325 326 325 317 276 14 320 321 248 263 145 126 101 165 208 112 190 207 221 226 219 238 233 227 240 236 230 238 255 141 289 288 285 281 295 321 179 194 181 186 203 201 194 172
320 320 326 206 216 278 307 305 256 230 247 141 141 190 190 212 220 162 198 233 233 240 235 252 232 238 221 240 243 252 260 261 258 260 264 60 295 138 134 137 156 180 203 195 167
315 312 297 307 346 339 300 256 228 247 94 158 190 187 213 179 215 180 197 199 214 218 218 218 238 237 248 234 240 236 234 243 237 234 211 355 315 117 142 113 129 187 176 187 175
313 311 190 254 302 291 270 235 249 163 192 62 264 235 238 214 211 194 202 208 217 213 221 216 214 210 213 239 237 212 238 245 252 255 52 41 263 114 105 107 125 146 164 177 172
308 193 223 153 214 258 246 228 230 276 20 280 264 240 200 220 254 195 216 213 213 228 228 227 224 199 210 216 237 234 217 245 259 268 210 168 200 273 140 125 137 147 159 157 159
300 257 133 290 219 228 240 254 292 350 314 256 271 246 231 189 203 208 204 221 223 213 240 257 272 202 188 229 229 250 263 227 246 262 272 263 211 334 174 138 146 146 148 146 153
250 233 75 177 207 227 238 238 244 171 265 285 280 278 281 315 219 216 236 215 230 189 228 247 238 242 183 204 230 216 238 250 270 234 262 264 200 100 56 283 158 153 149 154 153
286 239 124 214 219 224 242 245 20 283 187 263 277 287 289 330 267 265 230 217 192 229 211 234 251 225 204 231 218 250 218 234 244 252 260 287 163 213 186 207 154 146 148 150 155
291 26 154 244 247 222 238 291 272 263 234 244 244 242 279 273 273 271 236 86 115 253 242 217 231 253 235 202 221 230 255 219 242 250 254 257 262 107 103 124 148 142 149 151 152
277 208 146 211 281 287 300 253 234 203 279 291 277 274 257 255 236 279 242 198 232 236 345 293 244 231 248 227 213 207 235 255 265 259 242 247 191 161 171 150 152 151 149 155 156
279 36 3 204 216 263 305 299 266 242 197 254 250 245 254 245 248 209 246 244 194 168 240 239 251 247 257 269 254 240 213 226 243 251 260 265 257 248 184 174 166 156 153 163 156
331 338 343 285 272 260 212 263 255 277 262 272 219 285 222 261 277 327 271 249 225 176 214 221 247 250 250 252 255 250 254 244 222 241 249 263 273 283 95 122 163 163 162 172 164
3 308 277 289 271 247 8 309 262 298 297 285 311 316 275 267 324 320 321 310 307 293 282 224 228 247 243 245 244 242 239 239 250 246 229 246 251 265 238 157 174 165 168 173 163